Location: Aalsum
(53.3404°N, 6.0062°E)
Time: 03:52:36
(UTC+00:00)

CSL-04 Debris - Pass Details

Date: 28 January 2023
Orbit: 826 x 845 km, 98.8° (Epoch: 24 March)

Event Time Altitude Azimuth Distance (km) Brightness Sun altitude
Exits shadow 18:36:52 38° 125° (SE) 1,256 4.7 -21.5°
Maximum altitude 18:38:45 58° 67° (ENE) 973 4.2 -21.8°
Drops below altitude 10° 18:44:03 10° 350° (N) 2,449 6.7 -22.6°
Sets 18:46:26 0° 347° (NNW) 3,385 7.5 -23.0°
